Location: Unspecified
(35.0317°N, 0.0000°E)
Time: 22:27:43
(UTC+00:00)

Hubble Space Telescope - Visible Passes

Search period start: 22 October 2019 00:00
Search period end: 01 November 2019 00:00
Orbit: 536 x 540 km, 28.5° (Epoch: 21 October)

Date Brightness Start Highest point End Pass type
(mag) Time Alt. Az. Time Alt. Az. Time Alt. Az.
27 Oct 3.5 05:04:01 10° S 05:05:30 12° SSE 05:06:59 10° SE visible
28 Oct 3.3 04:52:34 10° SSW 04:54:48 14° SSE 04:57:04 10° SE visible
29 Oct 3.1 04:42:03 12° SSW 04:44:08 17° SSE 04:46:51 10° ESE visible
30 Oct 2.7 04:32:22 18° S 04:33:28 20° SSE 04:36:30 10° ESE visible
31 Oct 2.5 04:22:36 23° S 04:22:48 23° SSE 04:26:04 10° ESE visible
